TimeEST,TemperatureF,Dew PointF,Humidity,Sea Level PressureIn,VisibilityMPH,Wind Direction,Wind SpeedMPH,Gust SpeedMPH,PrecipitationIn,Events,Conditions,WindDirDegrees,DateUTC
12:01 AM,10.4,3.2,73,29.84,7.0,NW,12.7,21.9,N/A,Snow,Light Snow,310,2009-01-21 05:01:00
12:21 AM,10.4,3.2,73,29.85,7.0,NW,6.9,-,N/A,Snow,Light Snow,320,2009-01-21 05:21:00
12:41 AM,10.4,3.2,73,29.85,10.0,WNW,4.6,-,N/A,Snow,Light Snow,300,2009-01-21 05:41:00
1:01 AM,10.4,3.2,73,29.85,7.0,WNW,9.2,26.5,N/A,Snow,Light Snow,300,2009-01-21 06:01:00
1:21 AM,10.4,3.2,73,29.85,7.0,WNW,15.0,29.9,N/A,Snow,Light Snow,300,2009-01-21 06:21:00
1:41 AM,10.4,3.2,73,29.85,4.0,NW,13.8,25.3,N/A,Snow,Light Snow,310,2009-01-21 06:41:00
2:01 AM,10.4,5.0,79,29.86,4.0,NW,10.4,18.4,N/A,Snow,Light Snow,310,2009-01-21 07:01:00
2:21 AM,10.4,3.2,73,29.86,4.0,NW,12.7,18.4,N/A,Snow,Light Snow,310,2009-01-21 07:21:00
3:01 AM,10.4,3.2,73,29.86,7.0,NW,8.1,24.2,N/A,Snow,Light Snow,320,2009-01-21 08:01:00
3:21 AM,10.4,3.2,73,29.87,10.0,WNW,5.8,17.3,N/A,Snow,Light Snow,300,2009-01-21 08:21:00
3:41 AM,10.4,3.2,73,29.86,7.0,WNW,13.8,23.0,N/A,Snow,Light Snow,300,2009-01-21 08:41:00
4:01 AM,10.4,3.2,73,29.86,5.0,WNW,12.7,21.9,N/A,Snow,Light Snow,290,2009-01-21 09:01:00
4:21 AM,10.4,3.2,73,29.86,7.0,West,11.5,21.9,N/A,Snow,Light Snow,270,2009-01-21 09:21:00
4:41 AM,10.4,3.2,73,29.87,7.0,WNW,8.1,17.3,N/A,Snow,Light Snow,300,2009-01-21 09:41:00
5:01 AM,10.4,3.2,73,29.87,7.0,WNW,10.4,-,N/A,Snow,Light Snow,300,2009-01-21 10:01:00
5:21 AM,10.4,3.2,73,29.86,7.0,WNW,11.5,18.4,N/A,Snow,Light Snow,290,2009-01-21 10:21:00
5:41 AM,10.4,3.2,73,29.86,10.0,WNW,19.6,28.8,N/A,,Clear,290,2009-01-21 10:41:00
6:01 AM,10.4,3.2,73,29.86,10.0,WNW,18.4,27.6,N/A,,Clear,290,2009-01-21 11:01:00
6:21 AM,10.4,3.2,73,29.87,10.0,WNW,20.7,29.9,N/A,,Clear,290,2009-01-21 11:21:00
6:41 AM,10.4,3.2,73,29.88,10.0,West,25.3,33.4,N/A,,Clear,280,2009-01-21 11:41:00
7:01 AM,10.4,3.2,73,29.89,10.0,West,21.9,27.6,N/A,,Clear,280,2009-01-21 12:01:00
7:21 AM,10.4,3.2,73,29.90,10.0,West,16.1,26.5,N/A,,Clear,280,2009-01-21 12:21:00
7:41 AM,10.4,3.2,73,29.91,10.0,Calm,Calm,-,N/A,,Clear,0,2009-01-21 12:41:00
8:01 AM,10.4,3.2,73,29.93,10.0,NW,4.6,-,N/A,,Clear,320,2009-01-21 13:01:00
8:21 AM,10.4,3.2,73,29.93,10.0,WNW,12.7,26.5,N/A,,Clear,290,2009-01-21 13:21:00
8:41 AM,12.2,3.2,67,29.94,10.0,WNW,9.2,18.4,N/A,,Clear,300,2009-01-21 13:41:00
9:01 AM,12.2,3.2,67,29.94,10.0,West,16.1,20.7,N/A,,Clear,280,2009-01-21 14:01:00
9:21 AM,12.2,3.2,67,29.95,10.0,West,11.5,-,N/A,,Clear,280,2009-01-21 14:21:00
9:41 AM,15.8,6.8,68,29.96,10.0,West,8.1,-,N/A,,Clear,270,2009-01-21 14:41:00
10:01 AM,15.8,5.0,62,29.97,10.0,West,6.9,-,N/A,,Clear,280,2009-01-21 15:01:00
10:21 AM,15.8,3.2,58,29.96,10.0,West,5.8,-,N/A,,Clear,280,2009-01-21 15:21:00
10:41 AM,17.6,3.2,53,29.97,10.0,West,5.8,-,N/A,,Clear,270,2009-01-21 15:41:00
11:01 AM,17.6,3.2,53,29.98,10.0,West,3.5,-,N/A,,Clear,280,2009-01-21 16:01:00
11:21 AM,19.4,3.2,49,29.97,10.0,WNW,4.6,-,N/A,,Clear,290,2009-01-21 16:21:00
11:41 AM,19.4,-0.4,42,29.97,10.0,West,6.9,-,N/A,,Clear,270,2009-01-21 16:41:00
12:01 PM,21.2,-0.4,39,29.97,10.0,WNW,5.8,17.3,N/A,,Clear,290,2009-01-21 17:01:00
12:21 PM,21.2,1.4,42,29.97,10.0,SW,3.5,-,N/A,,Clear,230,2009-01-21 17:21:00
12:41 PM,23.0,1.4,39,29.97,10.0,SSW,3.5,-,N/A,,Clear,200,2009-01-21 17:41:00
1:00 PM,23.0,5.0,46,29.96,10.0,WSW,6.9,-,N/A,,Clear,250,2009-01-21 18:00:00
1:20 PM,24.8,3.2,40,29.95,10.0,West,3.5,-,N/A,,Clear,280,2009-01-21 18:20:00
1:40 PM,26.6,6.8,43,29.94,10.0,SE,4.6,-,N/A,,Clear,140,2009-01-21 18:40:00
2:00 PM,24.8,3.2,40,29.94,10.0,West,5.8,-,N/A,,Clear,270,2009-01-21 19:00:00
2:20 PM,23.0,3.2,43,29.95,10.0,WSW,8.1,-,N/A,,Scattered Clouds,250,2009-01-21 19:20:00
2:40 PM,23.0,3.2,43,29.95,10.0,West,9.2,-,N/A,,Scattered Clouds,270,2009-01-21 19:40:00
3:22 PM,24.8,6.8,46,29.95,10.0,West,8.1,-,N/A,,Overcast,280,2009-01-21 20:22:00
3:40 PM,24.8,6.8,46,29.95,10.0,West,10.4,-,N/A,,Scattered Clouds,270,2009-01-21 20:40:00
4:01 PM,24.8,6.8,46,29.96,10.0,West,11.5,-,N/A,,Clear,280,2009-01-21 21:01:00
4:20 PM,24.8,6.8,46,29.96,10.0,WNW,16.1,21.9,N/A,,Clear,290,2009-01-21 21:20:00
4:41 PM,24.8,6.8,46,29.96,10.0,West,8.1,16.1,N/A,,Clear,280,2009-01-21 21:41:00
5:00 PM,23.0,6.8,50,29.96,10.0,WNW,5.8,10.4,N/A,,Clear,290,2009-01-21 22:00:00
5:20 PM,23.0,6.8,50,29.97,10.0,NW,4.6,-,N/A,,Clear,310,2009-01-21 22:20:00
5:40 PM,21.2,6.8,54,29.97,10.0,Calm,Calm,-,N/A,,Clear,0,2009-01-21 22:40:00
6:00 PM,21.2,5.0,50,29.98,10.0,Calm,Calm,-,N/A,,Clear,0,2009-01-21 23:00:00
6:22 PM,21.2,5.0,50,29.98,10.0,Calm,Calm,-,N/A,,Clear,0,2009-01-21 23:22:00
6:40 PM,21.2,3.2,46,29.98,10.0,Calm,Calm,-,N/A,,Clear,0,2009-01-21 23:40:00
7:00 PM,21.2,3.2,46,29.98,10.0,Calm,Calm,-,N/A,,Clear,0,2009-01-22 00:00:00
7:20 PM,21.2,3.2,46,29.98,10.0,Calm,Calm,-,N/A,,Clear,0,2009-01-22 00:20:00
7:40 PM,21.2,3.2,46,29.97,10.0,Calm,Calm,-,N/A,,Clear,0,2009-01-22 00:40:00
8:02 PM,21.2,3.2,46,29.98,10.0,Calm,Calm,-,N/A,,Clear,0,2009-01-22 01:02:00
8:20 PM,19.4,5.0,54,29.97,10.0,Calm,Calm,-,N/A,,Clear,0,2009-01-22 01:20:00
8:40 PM,19.4,6.8,58,29.97,10.0,Calm,Calm,-,N/A,,Clear,0,2009-01-22 01:40:00
9:00 PM,17.6,5.0,58,29.98,10.0,Calm,Calm,-,N/A,,Clear,0,2009-01-22 02:00:00
9:22 PM,17.6,6.8,63,29.98,10.0,North,3.5,-,N/A,,Clear,360,2009-01-22 02:22:00
9:40 PM,17.6,6.8,63,29.99,10.0,North,4.6,-,N/A,,Clear,360,2009-01-22 02:40:00
10:00 PM,19.4,6.8,58,29.99,10.0,Calm,Calm,-,N/A,,Clear,0,2009-01-22 03:00:00
10:20 PM,19.4,6.8,58,29.99,10.0,Calm,Calm,-,N/A,,Clear,0,2009-01-22 03:20:00
10:43 PM,17.6,6.8,63,29.99,10.0,Calm,Calm,-,N/A,,Clear,0,2009-01-22 03:43:00
11:00 PM,17.6,6.8,63,29.99,10.0,East,3.5,-,N/A,,Clear,100,2009-01-22 04:00:00
11:20 PM,17.6,6.8,63,29.99,10.0,East,3.5,-,N/A,,Clear,80,2009-01-22 04:20:00